Waarnemingen

Advertentie
Mijn weer
Jerez de los Caballeros, Spanje (8337): temperatuur & dauwpunt: 18.10.2017 07:00:00 - 24.10.2017 07:00:00 (CEST)Jerez de los Caballeros, Spanje (8337): windsnelheid & windstoten: 18.10.2017 07:00:00 - 24.10.2017 07:00:00 (CEST)Jerez de los Caballeros, Spanje (8337): windrichting: 18.10.2017 07:00:00 - 24.10.2017 07:00:00 (CEST)Jerez de los Caballeros, Spanje (8337): luchtdruk: 18.10.2017 07:00:00 - 24.10.2017 07:00:00 (CEST)Jerez de los Caballeros, Spanje (8337): zicht: 18.10.2017 07:00:00 - 24.10.2017 07:00:00 (CEST)Jerez de los Caballeros, Spanje (8337): Zonneschijnduur: 18.10.2017 07:00:00 - 24.10.2017 07:00:00 (CEST)Jerez de los Caballeros, Spanje (8337): neerslag: 18.10.2017 07:00:00 - 24.10.2017 07:00:00 (CEST)
Datum & Tijd tt [°C] td [°C] ff [km/u] ff [kn] fx [km/u] fx [kn] dd ppp [hPa] vv [km] sd [min] rr [mm]
24.10.2017 07:00:00 13,2 8,9 8 4 13 7 ONO 1022,6 20 0 0,0
24.10.2017 06:00:00 13,4 7,0 5 3 21 12 OZO 1022,4 20 0 0,0
24.10.2017 05:00:00 14,0 6,5 11 6 16 9 O 1022,5 20 0 0,0
24.10.2017 04:00:00 14,2 7,3 9 5 15 8 O 1022,8 20 0 0,0
24.10.2017 03:00:00 15,2 7,3 5 3 15 8 O 1022,7 20 0 0,0
24.10.2017 02:00:00 15,8 7,8 9 5 17 9 O 1023,0 20 0 -
24.10.2017 01:00:00 16,6 7,8 11 6 17 9 O 1023,1 20 0 0,0
24.10.2017 00:00:00 18,9 7,3 14 8 20 11 NO 1022,7 20 0 0,0
23.10.2017 23:00:00 19,5 7,0 13 7 22 12 NO 1022,6 20 0 0,0
23.10.2017 22:00:00 19,5 8,5 16 9 21 12 ONO 1022,3 20 0 0,0
23.10.2017 21:00:00 22,0 7,7 17 9 29 15 NNO 1021,6 20 0 0,0
23.10.2017 20:00:00 23,0 5,5 14 8 26 14 NO 1021,2 20 27 -
23.10.2017 19:00:00 24,9 5,6 19 10 29 16 ONO 1020,7 20 60 0,0
23.10.2017 18:00:00 25,6 5,8 19 10 31 17 NO 1020,5 20 60 0,0
23.10.2017 17:00:00 26,0 6,1 19 11 27 15 ONO 1020,6 20 60 0,0
23.10.2017 16:00:00 25,7 7,7 14 7 29 16 ONO 1021,3 20 60 0,0
23.10.2017 15:00:00 25,1 7,7 14 7 26 14 NO 1022,1 20 60 0,0
23.10.2017 14:00:00 24,1 8,5 21 11 28 15 ONO 1023,0 20 60 -
23.10.2017 13:00:00 22,7 9,4 16 8 23 12 ONO 1023,6 20 60 0,0
23.10.2017 12:00:00 19,9 9,4 15 8 20 11 O 1024,3 20 60 0,0
23.10.2017 11:00:00 16,1 9,0 15 8 21 11 ONO 1024,9 20 60 0,0
23.10.2017 10:00:00 11,9 8,1 10 5 16 9 O 1025,0 20 60 0,0
23.10.2017 09:00:00 9,9 7,6 8 4 11 6 O 1025,0 18 8 0,0
23.10.2017 08:00:00 10,6 7,3 5 3 13 7 O 1024,6 17 0 -
23.10.2017 07:00:00 11,4 7,6 9 5 17 9 O 1024,4 16 0 0,0
23.10.2017 06:00:00 10,3 7,1 13 7 20 11 O 1024,4 20 0 0,0
23.10.2017 05:00:00 12,6 7,8 13 7 17 9 NO 1024,0 14 0 0,0
23.10.2017 04:00:00 13,0 7,7 11 6 17 9 ONO 1024,3 20 0 0,0
23.10.2017 03:00:00 13,7 7,7 13 7 18 10 O 1024,7 18 0 0,0
23.10.2017 02:00:00 13,3 7,3 13 7 18 10 O 1025,0 20 0 -
23.10.2017 01:00:00 14,7 7,3 9 5 15 8 ONO 1025,1 20 0 0,0
23.10.2017 00:00:00 15,8 7,0 10 6 12 6 O 1024,8 20 0 0,0
22.10.2017 23:00:00 16,3 6,7 10 5 14 8 O 1024,6 20 0 0,0
22.10.2017 22:00:00 16,9 6,7 8 5 15 8 O 1024,1 20 0 0,0
22.10.2017 21:00:00 18,8 5,9 7 4 25 13 O 1023,5 20 0 0,0
22.10.2017 20:00:00 20,5 5,3 5 3 13 7 N 1022,9 20 11 -
22.10.2017 19:00:00 23,1 1,5 3 2 8 4 ZO 1022,3 20 48 0,0
22.10.2017 18:00:00 23,8 2,1 3 2 13 7 NNW 1022,1 20 60 0,0
22.10.2017 17:00:00 24,6 2,7 3 2 10 5 NO 1022,2 20 60 0,0
22.10.2017 16:00:00 23,6 3,0 6 3 13 7 O 1022,8 20 60 0,0
22.10.2017 15:00:00 22,2 4,6 8 4 18 10 O 1023,6 20 60 0,0
22.10.2017 14:00:00 20,0 6,4 12 7 22 12 NO 1024,6 20 60 -
22.10.2017 13:00:00 18,5 5,6 12 6 23 12 ONO 1025,3 20 60 0,0
22.10.2017 12:00:00 16,6 5,5 18 10 23 12 NO 1026,0 20 60 0,0
22.10.2017 11:00:00 13,9 7,1 14 8 19 11 ONO 1026,2 20 60 0,0
22.10.2017 10:00:00 10,3 6,4 10 5 12 7 O 1026,9 20 58 0,0
22.10.2017 09:00:00 10,4 5,3 5 3 13 7 ONO 1026,4 19 0 0,0
22.10.2017 08:00:00 11,0 5,5 7 4 12 7 ONO 1026,0 20 0 -
22.10.2017 07:00:00 12,4 5,1 5 3 8 5 NO 1025,8 20 0 0,0
22.10.2017 06:00:00 12,4 5,6 8 4 10 6 ONO 1025,8 20 0 0,0
22.10.2017 05:00:00 12,6 6,2 7 4 11 6 O 1025,4 20 0 0,0
22.10.2017 04:00:00 13,5 5,9 8 4 26 14 OZO 1025,8 20 0 0,0
22.10.2017 03:00:00 15,8 4,8 14 7 27 15 ONO 1025,7 20 0 0,0
22.10.2017 02:00:00 15,5 5,1 9 5 26 14 OZO 1025,8 20 0 -
22.10.2017 01:00:00 15,6 6,1 2 1 16 8 OZO 1025,8 20 0 0,0
22.10.2017 00:00:00 16,2 6,8 6 3 13 7 O 1025,5 20 0 0,0
21.10.2017 23:00:00 16,5 7,4 5 3 17 9 Z 1025,5 20 0 0,0
21.10.2017 22:00:00 17,4 8,3 6 4 27 15 ZW 1024,9 20 0 0,0
21.10.2017 21:00:00 18,6 9,7 15 8 29 16 WNW 1024,4 20 0 0,0
21.10.2017 20:00:00 20,1 12,3 11 6 26 14 NW 1023,6 20 14 -
21.10.2017 19:00:00 21,6 12,4 12 7 22 12 WNW 1023,1 20 55 0,0
21.10.2017 18:00:00 22,7 13,2 16 9 28 15 W 1022,6 20 36 0,0
21.10.2017 17:00:00 22,2 12,7 16 9 25 13 WNW 1022,8 20 30 0,0
21.10.2017 16:00:00 22,9 12,8 14 8 25 14 W 1023,1 20 59 0,0
21.10.2017 15:00:00 22,3 12,5 13 7 27 15 W 1023,7 20 40 0,0
21.10.2017 14:00:00 21,7 13,4 11 6 22 12 WZW 1024,4 20 21 -
21.10.2017 13:00:00 22,7 16,0 4 2 9 5 Z 1024,7 20 34 0,0
21.10.2017 12:00:00 19,9 15,8 4 2 10 5 Z 1025,4 20 25 0,0
21.10.2017 11:00:00 18,6 15,1 1 1 12 6 OZO 1025,4 20 0 0,0
21.10.2017 10:00:00 17,7 15,2 10 5 20 11 WNW 1024,9 20 0 0,0
21.10.2017 09:00:00 17,8 16,0 12 6 18 10 WNW 1024,1 20 0 0,0
21.10.2017 08:00:00 17,8 16,3 6 3 14 8 ZW - - 0 -
21.10.2017 07:00:00 17,9 16,4 11 6 16 8 ZW 1023,5 9 0 0,2
21.10.2017 06:00:00 18,2 16,7 8 4 13 7 ZW 1023,1 6 0 0,0
21.10.2017 05:00:00 18,3 16,8 4 2 10 5 ZW 1022,9 7 0 0,0
21.10.2017 04:00:00 18,4 16,9 4 2 7 4 ZZW 1023,1 8 0 0,0
21.10.2017 03:00:00 18,6 17,1 4 2 6 3 ZW 1023,1 5 0 0,0
21.10.2017 02:00:00 18,4 16,9 4 2 9 5 WNW 1023,2 20 0 -
21.10.2017 01:00:00 18,5 17,0 6 3 8 5 WZW - - 0 0,0
21.10.2017 00:00:00 18,9 17,2 3 2 8 5 ZO 1023,1 12 0 0,0
20.10.2017 23:00:00 18,8 17,1 7 4 9 5 ZW 1023,0 15 0 0,0
20.10.2017 22:00:00 18,7 17,1 6 4 13 7 W 1022,6 20 0 0,2
20.10.2017 21:00:00 18,8 17,1 9 5 30 16 WNW 1022,4 20 0 0,2
20.10.2017 20:00:00 21,2 15,7 9 5 16 9 ZW 1021,4 20 0 -
20.10.2017 19:00:00 21,7 15,5 8 5 12 7 ZZW 1020,7 20 2 0,0
20.10.2017 18:00:00 22,3 15,4 8 4 13 7 WZW 1020,5 20 19 0,0
20.10.2017 17:00:00 22,3 15,9 9 5 16 8 ZW 1020,8 20 27 0,0
20.10.2017 16:00:00 21,2 15,7 10 5 21 12 ZW 1021,0 20 3 0,0
20.10.2017 15:00:00 20,9 15,9 13 7 23 12 ZZW 1021,3 20 9 0,0
20.10.2017 14:00:00 19,8 16,2 15 8 23 12 WZW 1021,8 20 0 -
20.10.2017 13:00:00 19,5 16,6 9 5 15 8 ZZW 1022,0 20 6 0,0
20.10.2017 12:00:00 18,1 16,6 6 4 11 6 ZZW 1021,9 8 1 0,0
20.10.2017 11:00:00 17,1 15,6 4 2 7 4 ZW 1021,7 1,4 0 0,0
20.10.2017 10:00:00 16,5 15,2 4 2 6 3 OZO 1021,0 3,2 0 0,2
20.10.2017 09:00:00 16,1 14,8 3 2 4 2 WNW 1020,2 1,9 0 0,0
20.10.2017 08:00:00 16,0 14,5 1 1 3 2 W 1019,6 2,7 0 -
20.10.2017 07:00:00 15,9 14,4 3 2 6 4 ZW 1019,5 1,4 0 0,0
20.10.2017 06:00:00 15,8 14,1 4 2 17 9 ZW 1019,3 0,4 0 0,0
20.10.2017 05:00:00 16,1 13,9 12 6 16 9 ZW 1019,2 2,0 0 0,0
20.10.2017 04:00:00 16,1 13,8 8 5 14 7 ZW 1019,5 11 0 0,0
20.10.2017 03:00:00 16,3 13,9 6 3 14 8 ZZW 1019,5 15 0 0,0
20.10.2017 02:00:00 16,2 13,7 12 7 19 11 WZW 1019,4 14 0 -
20.10.2017 01:00:00 16,3 13,6 16 9 24 13 W 1019,3 16 0 0,0
20.10.2017 00:00:00 15,9 13,1 9 5 20 11 W 1019,1 20 0 0,0
19.10.2017 23:00:00 16,2 13,0 10 6 13 7 W 1018,7 20 0 0,0
19.10.2017 22:00:00 16,6 13,0 8 5 11 6 W 1018,2 20 0 0,0
19.10.2017 21:00:00 17,6 13,0 8 4 23 12 ZW 1017,4 20 0 0,0
19.10.2017 20:00:00 18,1 12,7 18 10 34 18 W 1016,8 20 0 -
19.10.2017 19:00:00 19,0 12,0 25 13 34 19 W 1015,7 20 0 0,0
19.10.2017 18:00:00 19,3 11,3 20 11 29 16 W 1015,3 20 2 0,0
19.10.2017 17:00:00 20,1 11,0 18 10 29 16 W 1014,8 20 40 0,0
19.10.2017 16:00:00 20,3 11,8 19 10 30 16 WZW 1014,6 20 45 0,0
19.10.2017 15:00:00 19,4 11,4 21 11 32 18 W 1015,1 20 47 0,0
19.10.2017 14:00:00 19,1 11,4 15 8 28 15 WZW 1015,3 20 14 -
19.10.2017 13:00:00 19,0 11,8 18 10 32 17 WZW 1015,3 20 44 0,0
19.10.2017 12:00:00 17,4 12,3 8 4 17 9 ZZW 1014,9 20 52 0,0
19.10.2017 11:00:00 16,4 12,1 3 1 6 4 ZZW 1014,8 20 27 0,0
19.10.2017 10:00:00 14,1 12,1 1 1 6 3 WZW 1014,2 20 0 0,0
19.10.2017 09:00:00 13,8 12,2 7 4 8 5 ZW 1013,4 13 0 0,0
19.10.2017 08:00:00 13,8 12,0 3 2 6 4 ZZW 1013,2 13 0 -
19.10.2017 07:00:00 13,7 12,1 2 1 7 4 ZW 1012,8 11 0 0,0
19.10.2017 06:00:00 13,6 11,8 5 3 6 3 O 1012,4 14 0 0,0
19.10.2017 05:00:00 13,7 11,8 2 1 6 4 Z 1012,3 20 0 0,0
19.10.2017 04:00:00 13,7 11,0 3 2 11 6 NNW 1012,5 20 0 0,0
19.10.2017 03:00:00 13,4 11,4 8 4 10 5 N 1012,7 20 0 0,0
19.10.2017 02:00:00 13,4 11,7 4 2 13 7 WNW 1013,2 20 0 -
19.10.2017 01:00:00 13,6 11,4 10 5 18 10 WZW 1013,8 14 0 0,6
19.10.2017 00:00:00 14,1 11,1 13 7 24 13 ZW 1014,2 20 0 0,0
18.10.2017 23:00:00 14,8 10,4 21 11 39 21 WZW 1014,1 20 0 0,0
18.10.2017 22:00:00 16,1 10,9 27 15 37 20 WZW 1013,3 20 0 0,0
18.10.2017 21:00:00 16,2 10,8 15 8 29 16 ZW 1013,2 20 0 0,0
18.10.2017 20:00:00 16,6 10,0 21 11 32 17 ZW 1012,6 20 1 -
18.10.2017 19:00:00 17,9 10,5 18 10 34 19 ZW 1012,2 20 41 0,0
18.10.2017 18:00:00 18,1 10,4 24 13 41 22 ZW 1012,2 20 31 0,0
18.10.2017 17:00:00 17,9 9,6 27 15 41 22 ZW 1012,4 20 36 0,0
18.10.2017 16:00:00 19,6 10,9 30 16 46 25 ZW 1012,2 20 56 0,0
18.10.2017 15:00:00 19,0 11,1 33 18 46 25 ZW 1012,9 20 46 0,0
18.10.2017 14:00:00 16,6 11,9 24 13 35 19 ZW 1014,1 20 27 -
18.10.2017 13:00:00 16,1 12,8 20 11 30 16 ZZW 1014,6 20 31 0,0
18.10.2017 12:00:00 14,4 11,9 19 10 27 14 W 1015,0 20 2 0,4
18.10.2017 11:00:00 14,2 12,5 9 5 21 11 ZZW 1015,1 6 0 1,2
18.10.2017 10:00:00 14,2 12,5 16 9 22 12 ZW 1014,9 20 2 0,0
18.10.2017 09:00:00 13,9 12,4 14 8 30 16 ZW 1014,4 19 0 0,0
18.10.2017 08:00:00 13,7 12,2 21 11 26 14 ZW 1014,1 20 0 -
18.10.2017 07:00:00 13,6 11,8 8 5 13 7 ZW 1014,2 4,9 0 0,8

tt = temperatuur
td = dauwpunt
ff = windsnelheid
fx = windstoten
dd = windrichting
ppp = luchtdruk
vv = zicht
sd = Zonneschijnduur
rr = neerslag

Weerstations in de omgeving